Location: Edisto_Beach
(32.4790°N, 80.3350°W)
Time: 23:26:01
(UTC-04:00)

Amateur Radio Satellites - All Passes

Search period start: 29 July 2016 22:56
Search period end: 30 July 2016 22:56
Location: Edisto_Beach, 32.4790°N, 80.3350°W

Satellite Date Start Highest point End Downlink Frequencies (MHz)
Time Altitude Azimuth
Cosmos 2504 29 Jul 23:00:07 23:08:05 81° 266° (W) 23:15:28 435.465 / 435.565
AUBIESAT-1 29 Jul 23:06:31 23:10:02 39° 258° (WSW) 23:13:52 437.475
YUBILEINY 29 Jul 23:07:28 23:14:08 25° 277° (W) 23:20:48 435.215
DELFI C3 29 Jul 23:08:30 23:11:49 25° 263° (W) 23:15:10 145.870
AO-85 29 Jul 23:08:49 23:13:05 71° 61° (ENE) 23:17:00 145.980
FUNcube-1 29 Jul 23:10:53 23:13:15 14° 267° (W) 23:15:38 145.935
PRISM 29 Jul 23:11:03 23:13:03 13° 292° (WNW) 23:15:02 437.425
ZACube-1 29 Jul 23:14:07 23:15:54 12° 268° (W) 23:17:42 437.345
TIGRISAT 29 Jul 23:15:26 23:19:46 41° 99° (E) 23:23:58 435.000
UNISAT 6 29 Jul 23:32:37 23:37:12 72° 101° (E) 23:41:39 437.425
50 SAT 29 Jul 23:43:15 23:46:06 22° 72° (ENE) 23:48:57 437.505
CUBEBUG 1 29 Jul 23:46:14 23:49:59 30° 72° (ENE) 23:53:47 437.445
ESTCUBE 1 29 Jul 23:48:08 23:52:29 52° 75° (ENE) 23:56:51 437.505/2401.250
VELOX 1 29 Jul 23:52:43 23:56:35 31° 72° (ENE) 00:00:28 145.980
JUGNU 29 Jul 23:53:54 23:56:41 13° 164° (SSE) 23:59:28 437.505
HUMSAT D 30 Jul 00:02:04 00:04:33 15° 266° (W) 00:07:02 437.325/437.525
NANOSAT C BR1 30 Jul 00:05:51 00:09:00 20° 96° (E) 00:12:08 145.865
DUCHIFAT 1 30 Jul 00:08:39 00:11:48 20° 96° (E) 00:14:56 145.980
ANTELSAT 30 Jul 00:11:14 00:15:30 40° 287° (WNW) 00:19:41 437.575/2403.000
DX 1 30 Jul 00:26:35 00:30:48 58° 75° (ENE) 00:35:04 434.975-435.025
QB50P1 30 Jul 00:29:16 00:33:20 42° 99° (E) 00:37:22 145.935-145.965
Cosmos 2491 30 Jul 00:32:36 00:34:04 10° 296° (WNW) 00:35:32 435.465 / 435.565
UKube-1 30 Jul 00:34:35 00:38:47 55° 75° (ENE) 00:43:00 .
POPSAT HIP 1 30 Jul 00:35:57 00:40:07 50° 100° (E) 00:44:15 437.405
AISAT 30 Jul 00:37:21 00:41:42 68° 259° (W) 00:46:04 437.250
AIST 1 30 Jul 00:49:54 00:54:12 58° 82° (E) 00:58:31
TIGRISAT 30 Jul 00:53:25 00:56:01 15° 293° (WNW) 00:58:36 435.000
QB50P2 30 Jul 00:57:35 01:01:52 78° 283° (WNW) 01:06:07 145.880/145.840
POLYITAN 1 30 Jul 01:00:13 01:04:31 76° 282° (WNW) 01:08:45 437.675
SPROUT 30 Jul 01:01:57 01:06:12 85° 258° (WSW) 01:10:31 437.525
50 SAT 30 Jul 01:17:12 01:19:38 17° 264° (W) 01:22:04 437.505
GONETS M04 30 Jul 01:21:01 01:24:54 13° 66° (ENE) 01:28:46
CUBEBUG 1 30 Jul 01:23:24 01:26:16 17° 265° (W) 01:29:09 437.445
ESTCUBE 1 30 Jul 01:28:27 01:29:31 11° 267° (W) 01:30:35 437.505/2401.250
VELOX 1 30 Jul 01:30:09 01:33:03 17° 265° (W) 01:35:59 145.980
JAS-2 30 Jul 01:35:22 01:40:48 64° 102° (ESE) 01:46:51 435.910
SWISSCUBE 30 Jul 01:40:19 01:41:30 11° 65° (ENE) 01:42:41 437.505
JUGNU 30 Jul 01:40:35 01:45:04 22° 173° (S) 01:49:33 437.505
NANOSAT C BR1 30 Jul 01:41:07 01:44:39 26° 289° (WNW) 01:48:10 145.865
DUCHIFAT 1 30 Jul 01:43:53 01:47:25 26° 289° (WNW) 01:50:55 145.980
BUGSAT 1 30 Jul 01:45:13 01:49:25 60° 284° (WNW) 01:53:35 437.445
TISAT 1 30 Jul 01:46:20 01:50:29 67° 76° (ENE) 01:54:41 437.305
Cosmos 2499 30 Jul 01:53:30 01:56:36 13° 66° (ENE) 01:59:38 435.465 / 435.565
Oscar 19 30 Jul 01:57:02 02:01:11 24° 96° (E) 02:05:21 437.125/150
BEESAT 30 Jul 01:59:23 02:02:21 17° 67° (ENE) 02:05:18 436.000
Gurwin Techsat 1B 30 Jul 02:04:45 02:06:08 11° 92° (E) 02:07:31 435.225
QB50P1 30 Jul 02:06:42 02:08:42 13° 293° (WNW) 02:10:41 145.935-145.965
POPSAT HIP 1 30 Jul 02:14:11 02:15:24 11° 294° (WNW) 02:16:37 437.405
SRMSAT 30 Jul 02:16:19 02:19:13 14° 165° (SSE) 02:22:06 437.500
ITUPSAT 1 30 Jul 02:23:14 02:27:21 29° 71° (ENE) 02:31:29 437.325
BEESAT 3 30 Jul 02:42:26 02:44:38 14° 52° (NE) 02:46:49 437.485
BEESAT 2 30 Jul 02:55:59 02:56:48 10° 49° (NE) 02:57:38 435.950
ISS 30 Jul 02:57:38 02:59:28 14° 32° (NNE) 03:01:17 145.825
SWISSCUBE 30 Jul 03:13:56 03:18:41 65° 259° (WSW) 03:23:27 437.505
GONETS M04 30 Jul 03:14:03 03:22:55 84° 84° (E) 03:31:46
CUSAT 1 30 Jul 03:20:34 03:23:59 24° 97° (E) 03:26:48 437.405
JAS-2 30 Jul 03:22:48 03:25:28 14° 294° (WNW) 03:28:15 435.910
JUGNU 30 Jul 03:28:52 03:33:31 23° 184° (S) 03:38:09 437.505
BEESAT 30 Jul 03:35:14 03:39:44 42° 261° (W) 03:44:16 436.000
Oscar 19 30 Jul 03:35:54 03:40:27 32° 289° (WNW) 03:45:00 437.125/150
ITAMSAT 1 30 Jul 03:37:49 03:42:25 32° 98° (E) 03:46:58 435.822/435.867
Gurwin Techsat 1B 30 Jul 03:41:10 03:46:28 69° 285° (WNW) 03:51:44 435.225
Cosmos 2499 30 Jul 03:43:08 03:50:46 85° 265° (W) 03:57:55 435.465 / 435.565
MOZHAYETS 4 30 Jul 03:48:45 03:52:41 28° 71° (ENE) 03:56:35
AO-7 30 Jul 03:51:17 03:57:31 23° 96° (E) 04:03:41 29.400- 29.500
ITUPSAT 1 30 Jul 04:01:22 04:05:07 23° 264° (W) 04:08:53 437.325
SRMSAT 30 Jul 04:03:16 04:07:44 22° 174° (S) 04:12:12 437.500
DANDE 30 Jul 04:10:44 04:16:07 40° 97° (E) 04:20:13 436.750
BEESAT 3 30 Jul 04:18:45 04:22:27 39° 247° (WSW) 04:26:07 437.485
KKS-1 30 Jul 04:27:30 04:31:56 75° 75° (ENE) 04:36:22 437.445
BEESAT 2 30 Jul 04:31:02 04:34:58 59° 245° (WSW) 04:38:54 435.950
ISS 30 Jul 04:32:56 04:36:06 51° 228° (SW) 04:39:16 145.825
PCSat 30 Jul 04:42:30 04:47:50 55° 62° (ENE) 04:53:06 145.827
STARS 30 Jul 04:57:29 05:01:51 79° 76° (ENE) 05:06:16 437.465
CUSAT 1 30 Jul 05:04:08 05:05:46 12° 280° (W) 05:07:16 437.405
GONETS M04 30 Jul 05:13:56 05:18:31 15° 280° (W) 05:23:07
CUBESAT XI-V 30 Jul 05:16:45 05:20:40 28° 72° (ENE) 05:24:35 437.345
ITAMSAT 1 30 Jul 05:17:33 05:21:41 25° 291° (WNW) 05:25:47 435.822/435.867
JUGNU 30 Jul 05:18:20 05:21:55 16° 193° (SSW) 05:25:30 437.505
AIST 2 30 Jul 05:21:28 05:24:25 18° 53° (NE) 05:27:22 435.215
MOZHAYETS 4 30 Jul 05:26:10 05:29:46 22° 264° (W) 05:33:21
AO-7 30 Jul 05:42:27 05:50:40 64° 291° (WNW) 05:58:49 29.400- 29.500
RS-15 30 Jul 05:42:38 05:52:30 37° 105° (ESE) 06:02:46 29.354- 29.394
HORYU 2 30 Jul 05:47:19 05:51:23 33° 99° (E) 05:55:23 437.375
O/OREOS (USA 219) 30 Jul 05:50:31 05:53:21 16° 62° (ENE) 05:56:11 437.305
SRMSAT 30 Jul 05:51:45 05:56:20 23° 184° (S) 06:00:53 437.500
DANDE 30 Jul 05:55:38 05:58:37 15° 280° (W) 06:01:13 436.750
BRITE-PL 30 Jul 05:57:52 06:00:19 13° 94° (E) 06:02:49 437.365/2234.400
PCSat 30 Jul 06:27:39 06:30:41 15° 256° (WSW) 06:33:42 145.827
STRAND 1 30 Jul 06:30:19 06:30:57 10° 63° (ENE) 06:31:34 437.568
GOMX 1 30 Jul 06:42:37 06:46:15 19° 94° (E) 06:49:57 467.674
NOAA 18 30 Jul 06:43:30 06:47:35 21° 95° (E) 06:51:37 137.9125
CUBESAT XI-V 30 Jul 06:54:28 06:57:59 21° 264° (W) 07:01:30 437.345
Cubesat XI-IV 30 Jul 06:56:43 07:01:18 29° 97° (E) 07:05:50 437.490
AIST 2 30 Jul 06:59:12 07:02:56 32° 248° (WSW) 07:06:39 435.215
LilacSat-2 30 Jul 07:18:45 07:22:29 49° 99° (E) 07:26:11 437.200
CUTE-I 30 Jul 07:18:50 07:24:01 49° 100° (E) 07:29:07 437.470
HORYU 2 30 Jul 07:24:41 07:27:38 17° 292° (WNW) 07:30:33 437.375
NOAA 15 30 Jul 07:28:02 07:33:19 84° 105° (ESE) 07:38:36 137.62
O/OREOS (USA 219) 30 Jul 07:28:39 07:32:52 38° 256° (WSW) 07:37:06 437.305
BRITE-PL 30 Jul 07:33:58 07:38:55 58° 284° (WNW) 07:44:13 437.365/2234.400
AO-7 30 Jul 07:40:05 07:41:47 11° 309° (NW) 07:43:29 29.400- 29.500
SRMSAT 30 Jul 07:41:26 07:44:52 16° 194° (SSW) 07:48:18 437.500
SO-50 30 Jul 07:42:29 07:47:21 82° 117° (ESE) 07:52:14 436.795
RS-15 30 Jul 07:53:10 08:04:18 57° 304° (NW) 08:16:06 29.354- 29.394
DOVE 4 30 Jul 07:55:39 08:00:44 48° 99° (E) 08:05:51 437.250
STRAND 1 30 Jul 08:04:15 08:09:24 78° 257° (WSW) 08:14:34 437.568
CANX-2 30 Jul 08:07:22 08:08:37 11° 93° (E) 08:09:50 2200.000
YUBILEINY 30 Jul 08:16:06 08:17:22 10° 77° (ENE) 08:18:39 435.215
CUTE 1.7 + AOD 2 30 Jul 08:19:14 08:21:25 14° 93° (E) 08:23:36 437.475
GOMX 1 30 Jul 08:19:25 08:24:22 45° 286° (WNW) 08:29:30 467.674
PRISM 30 Jul 08:20:35 08:22:55 15° 68° (ENE) 08:25:15 437.425
NOAA 18 30 Jul 08:23:10 08:28:19 41° 289° (WNW) 08:33:26 137.9125
Cubesat XI-IV 30 Jul 08:36:44 08:41:14 28° 291° (WNW) 08:45:42 437.490
Cosmos 2491 30 Jul 08:43:21 08:51:40 46° 78° (ENE) 08:59:58 435.465 / 435.565
SEEDS 30 Jul 08:51:09 08:54:32 24° 96° (E) 08:57:52 437.485
COMPASS 1 30 Jul 08:56:57 08:59:52 18° 95° (E) 09:02:46 437.405
CUTE-I 30 Jul 09:00:14 09:03:36 17° 294° (WNW) 09:06:56 437.470
CINEMA 3 30 Jul 09:20:11 09:25:12 77° 283° (WNW) 09:30:06 145.822/145.860
AAUSAT CUBESAT 2 30 Jul 09:21:17 09:24:52 29° 97° (E) 09:28:27 437.432
HO-68 30 Jul 09:25:49 09:33:03 82° 105° (ESE) 09:40:13 435.675
SO-50 30 Jul 09:26:44 09:28:24 12° 313° (NW) 09:30:03 436.795
FUNcube-1 30 Jul 09:27:53 09:29:10 11° 92° (E) 09:30:28 145.935
ZACube-1 30 Jul 09:29:59 09:32:06 13° 93° (E) 09:34:12 437.345
DOVE 4 30 Jul 09:34:34 09:37:59 18° 292° (WNW) 09:41:26 437.250
UWE-3 30 Jul 09:35:46 09:39:35 26° 96° (E) 09:43:18 435.000/436.395/437.385
CANX-2 30 Jul 09:40:38 09:44:38 43° 285° (WNW) 09:48:37 2200.000
Cosmos 2504 30 Jul 09:42:13 09:47:00 16° 80° (E) 09:51:47 435.465 / 435.565
CUTE 1.7 + AOD 2 30 Jul 09:53:31 09:57:21 35° 287° (WNW) 10:01:10 437.475
PRISM 30 Jul 09:54:16 09:57:55 32° 261° (W) 10:01:35 437.425
Oscar 11 30 Jul 10:03:12 10:07:08 35° 98° (E) 10:11:03 145.826/435.025
YUBILEINY 30 Jul 10:03:50 10:12:35 77° 93° (E) 10:21:25 435.215
CUBEBUG 2 30 Jul 10:04:31 10:09:12 87° 281° (W) 10:13:42 437.445
TIGRISAT 30 Jul 10:09:50 10:13:23 22° 70° (ENE) 10:16:58 435.000
RS-15 30 Jul 10:13:28 10:20:19 17° 332° (NNW) 10:27:21 29.354- 29.394
UNISAT 6 30 Jul 10:26:36 10:30:49 36° 72° (ENE) 10:35:06 437.425
SEEDS 30 Jul 10:26:56 10:30:03 21° 289° (WNW) 10:33:09 437.485
M-CUBED/EXP-1 PRIME 30 Jul 10:27:23 10:30:11 16° 98° (E) 10:32:55 437.505
COMPASS 1 30 Jul 10:31:56 10:35:22 26° 288° (WNW) 10:38:46 437.405
Cosmos 2491 30 Jul 10:40:41 10:48:07 32° 274° (W) 10:55:34 435.465 / 435.565
AUBIESAT-1 30 Jul 10:49:43 10:53:21 23° 100° (E) 10:56:53 437.475
DELFI C3 30 Jul 10:49:50 10:53:41 52° 100° (E) 10:57:32 145.870
AAUSAT CUBESAT 2 30 Jul 10:57:27 11:00:05 17° 290° (WNW) 11:02:44 437.432
FUNcube-1 30 Jul 11:01:24 11:05:39 47° 286° (WNW) 11:09:47 145.935
ZACube-1 30 Jul 11:04:23 11:08:33 40° 286° (WNW) 11:12:36 437.345
ANTELSAT 30 Jul 11:04:26 11:09:05 83° 260° (W) 11:13:47 437.575/2403.000
UWE-3 30 Jul 11:12:22 11:15:51 22° 290° (WNW) 11:19:15 435.000/436.395/437.385
HO-68 30 Jul 11:15:48 11:19:51 16° 300° (WNW) 11:23:54 435.675
QB50P1 30 Jul 11:18:07 11:20:59 18° 69° (ENE) 11:23:52 145.935-145.965
POPSAT HIP 1 30 Jul 11:24:33 11:27:45 21° 70° (ENE) 11:30:56 437.405
Cosmos 2504 30 Jul 11:30:20 11:39:12 86° 275° (W) 11:48:06 435.465 / 435.565
Oscar 11 30 Jul 11:40:23 11:42:56 16° 291° (WNW) 11:45:29 145.826/435.025
QB50P2 30 Jul 11:45:29 11:49:29 40° 74° (ENE) 11:53:29 145.880/145.840
TIGRISAT 30 Jul 11:45:50 11:49:50 29° 263° (W) 11:53:55 435.000
JAS-2 30 Jul 11:45:54 11:49:05 15° 67° (ENE) 11:52:08 435.910
ESTCUBE 1 30 Jul 11:46:26 11:49:10 16° 94° (E) 11:51:53 437.505/2401.250
POLYITAN 1 30 Jul 11:48:06 11:52:06 42° 74° (ENE) 11:56:09 437.675
HUMSAT D 30 Jul 11:48:07 11:52:14 63° 284° (WNW) 11:56:16 437.325/437.525
M-CUBED/EXP-1 PRIME 30 Jul 12:00:19 12:04:48 44° 291° (WNW) 12:09:10 437.505
UNISAT 6 30 Jul 12:04:30 12:07:35 17° 266° (W) 12:10:41 437.425
YUBILEINY 30 Jul 12:04:33 12:10:12 18° 291° (WNW) 12:15:54 435.215
DX 1 30 Jul 12:20:45 12:23:11 15° 95° (E) 12:25:36 434.975-435.025
AUBIESAT-1 30 Jul 12:23:41 12:27:43 30° 293° (WNW) 12:31:39 437.475
NANOSAT C BR1 30 Jul 12:27:39 12:31:51 65° 259° (W) 12:36:04 145.865
UKube-1 30 Jul 12:27:56 12:30:02 13° 94° (E) 12:32:08 .
BUGSAT 1 30 Jul 12:30:09 12:34:04 47° 74° (ENE) 12:38:03 437.445
DUCHIFAT 1 30 Jul 12:30:10 12:34:20 65° 258° (WSW) 12:38:34 145.980
AISAT 30 Jul 12:32:16 12:36:15 31° 98° (E) 12:40:14 437.250
RS-15 30 Jul 12:37:37 12:40:53 11° 12° (NNE) 12:44:09 29.354- 29.394
50 SAT 30 Jul 12:48:55 12:52:25 50° 100° (E) 12:55:53 437.505
QB50P1 30 Jul 12:52:47 12:56:29 29° 262° (W) 13:00:14 145.935-145.965
SPROUT 30 Jul 12:53:05 12:56:32 23° 96° (E) 12:59:57 437.525
POPSAT HIP 1 30 Jul 12:59:50 13:03:20 25° 263° (W) 13:06:52 437.405
Oscar 19 30 Jul 13:09:47 13:13:41 23° 68° (ENE) 13:17:35 437.125/150
AIST 1 30 Jul 13:14:25 13:18:24 41° 92° (E) 13:22:25
CUBEBUG 1 30 Jul 13:14:43 13:19:06 68° 284° (WNW) 13:23:29 437.445
AO-85 30 Jul 13:17:01 13:22:25 76° 116° (ESE) 13:27:40 145.980
Gurwin Techsat 1B 30 Jul 13:21:22 13:23:31 12° 64° (ENE) 13:25:39 435.225
ESTCUBE 1 30 Jul 13:21:56 13:26:01 36° 287° (WNW) 13:30:08 437.505/2401.250
VELOX 1 30 Jul 13:22:59 13:27:24 65° 285° (WNW) 13:31:49 145.980
QB50P2 30 Jul 13:23:35 13:25:24 13° 267° (W) 13:27:16 145.880/145.840
POLYITAN 1 30 Jul 13:26:18 13:28:03 12° 267° (W) 13:29:48 437.675
JAS-2 30 Jul 13:27:46 13:33:48 59° 258° (WSW) 13:39:14 435.910
Cosmos 2504 30 Jul 13:29:09 13:33:40 15° 292° (WNW) 13:38:12 435.465 / 435.565
TISAT 1 30 Jul 13:36:12 13:38:39 15° 94° (E) 13:41:05 437.305
DX 1 30 Jul 13:55:24 13:59:27 37° 287° (WNW) 14:03:29 434.975-435.025
UKube-1 30 Jul 14:02:09 14:06:12 40° 287° (WNW) 14:10:14 .
AISAT 30 Jul 14:09:22 14:12:28 19° 291° (WNW) 14:15:33 437.250
GONETS M04 30 Jul 14:16:31 14:21:51 18° 81° (E) 14:27:10
Cosmos 2499 30 Jul 14:24:25 14:28:32 14° 80° (E) 14:32:35 435.465 / 435.565
SPROUT 30 Jul 14:28:55 14:32:20 23° 289° (WNW) 14:35:44 437.525
ITUPSAT 1 30 Jul 14:31:16 14:31:49 10° 92° (E) 14:32:23 437.325
AO-7 30 Jul 14:46:01 14:52:05 23° 59° (ENE) 14:58:09 29.400- 29.500
Oscar 19 30 Jul 14:48:09 14:52:45 34° 262° (W) 14:57:23 437.125/150
RS-15 30 Jul 14:48:40 14:59:21 32° 45° (NE) 15:09:50 29.354- 29.394
ITAMSAT 1 30 Jul 14:51:20 14:55:53 31° 70° (ENE) 15:00:27 435.822/435.867
AIST 1 30 Jul 14:54:47 14:56:11 11° 286° (WNW) 14:57:35
Gurwin Techsat 1B 30 Jul 14:57:31 15:02:48 68° 258° (WSW) 15:08:07 435.225
AO-85 30 Jul 15:00:32 15:03:22 14° 311° (NW) 15:06:09 145.980
TISAT 1 30 Jul 15:10:29 15:14:21 34° 287° (WNW) 15:18:11 437.305
PHONESAT 2.4 30 Jul 15:16:42 15:19:41 52° 149° (SSE) 15:22:41 2401.200-2431.200
SWISSCUBE 30 Jul 15:18:47 15:23:21 45° 100° (E) 15:27:53 437.505
CUSAT 1 30 Jul 15:37:20 15:40:39 38° 263° (W) 15:44:51 437.405
BEESAT 30 Jul 15:39:35 15:44:20 71° 102° (ESE) 15:49:03 436.000
ITUPSAT 1 30 Jul 16:05:16 16:09:58 61° 285° (WNW) 16:14:38 437.325
GONETS M04 30 Jul 16:08:58 16:17:36 74° 277° (W) 16:26:21
Cosmos 2499 30 Jul 16:11:32 16:20:26 88° 94° (E) 16:29:10 435.465 / 435.565
SO-50 30 Jul 16:19:18 16:22:49 21° 52° (NE) 16:26:15 436.795
KKS-1 30 Jul 16:23:50 16:27:11 21° 96° (E) 16:30:32 437.445
ITAMSAT 1 30 Jul 16:31:02 16:35:17 25° 264° (W) 16:39:33 435.822/435.867
AO-7 30 Jul 16:35:44 16:44:03 71° 255° (WSW) 16:52:26 29.400- 29.500
DANDE 30 Jul 16:36:13 16:38:21 18° 263° (W) 16:40:47 436.750
HORYU 2 30 Jul 16:41:35 16:44:42 19° 69° (ENE) 16:47:49 437.375
STARS 30 Jul 16:52:17 16:55:35 20° 96° (E) 16:58:52 437.465
PHONESAT 2.4 30 Jul 16:53:34 16:56:17 28° 344° (NNW) 16:59:00 2401.200-2431.200
SWISSCUBE 30 Jul 16:58:03 17:00:43 15° 293° (WNW) 17:03:21 437.505
RS-15 30 Jul 17:00:37 17:12:56 75° 247° (WSW) 17:24:56 29.354- 29.394
MOZHAYETS 4 30 Jul 17:24:35 17:29:06 65° 284° (WNW) 17:33:35
PCSat 30 Jul 17:39:24 17:41:49 13° 103° (ESE) 17:44:15 145.827
LilacSat-2 30 Jul 17:57:48 17:59:45 14° 69° (ENE) 18:01:42 437.200
SO-50 30 Jul 17:59:15 18:03:19 33° 248° (WSW) 18:07:18 436.795
KKS-1 30 Jul 17:59:52 18:03:42 28° 289° (WNW) 18:07:31 437.445
BEESAT 3 30 Jul 18:04:29 18:08:22 78° 299° (WNW) 18:12:19 437.485
NOAA 18 30 Jul 18:05:08 18:09:40 27° 68° (ENE) 18:14:13 137.9125
Cosmos 2499 30 Jul 18:09:25 18:14:27 16° 291° (WNW) 18:19:26 435.465 / 435.565
Cubesat XI-IV 30 Jul 18:14:11 18:18:51 31° 70° (ENE) 18:23:31 437.490
GONETS M04 30 Jul 18:14:17 18:15:54 11° 296° (WNW) 18:17:30
HORYU 2 30 Jul 18:16:59 18:20:58 32° 262° (W) 18:25:00 437.375
BEESAT 2 30 Jul 18:18:18 18:22:12 74° 116° (ESE) 18:26:10 435.950
STARS 30 Jul 18:28:06 18:31:53 28° 289° (WNW) 18:35:38 437.465
PHONESAT 2.4 30 Jul 18:31:09 18:33:21 18° 1° (N) 18:35:33 2401.200-2431.200
CUTE-I 30 Jul 18:35:58 18:41:10 52° 73° (ENE) 18:46:22 437.470
BRITE-PL 30 Jul 18:41:01 18:45:10 80° 258° (WSW) 18:49:20 437.365/2234.400
NOAA 15 30 Jul 18:43:27 18:48:41 85° 75° (ENE) 18:53:57 137.62
CUBESAT XI-V 30 Jul 18:54:14 18:58:47 61° 284° (WNW) 19:03:21 437.345
DOVE 4 30 Jul 18:57:29 19:00:59 25° 70° (ENE) 19:04:38 437.250
AIST 2 30 Jul 19:17:27 19:17:52 10° 107° (ESE) 19:18:16 435.215
RS-15 30 Jul 19:18:28 19:23:16 13° 263° (W) 19:28:02 29.354- 29.394
PCSat 30 Jul 19:19:14 19:24:36 63° 297° (WNW) 19:29:59 145.827
GOMX 1 30 Jul 19:23:22 19:27:28 62° 259° (W) 19:31:46 467.674
LilacSat-2 30 Jul 19:30:14 19:33:43 32° 262° (W) 19:37:14 437.200
ISS 30 Jul 19:32:43 19:35:46 38° 132° (SE) 19:38:49 145.825
NOAA 18 30 Jul 19:45:09 19:50:06 33° 261° (W) 19:55:05 137.9125
HO-68 30 Jul 19:49:32 19:56:01 38° 67° (ENE) 20:02:31 435.675
Cubesat XI-IV 30 Jul 19:54:22 19:58:50 27° 263° (W) 20:03:20 437.490
O/OREOS (USA 219) 30 Jul 19:57:03 20:01:13 40° 104° (ESE) 20:05:23 437.305
PHONESAT 2.4 30 Jul 20:07:37 20:10:24 30° 18° (NNE) 20:13:12 2401.200-2431.200
AAUSAT CUBESAT 2 30 Jul 20:09:15 20:10:33 11° 68° (ENE) 20:11:49 437.432
CINEMA 3 30 Jul 20:16:49 20:21:13 55° 75° (ENE) 20:25:51 145.822/145.860
CUTE-I 30 Jul 20:18:18 20:21:25 16° 266° (W) 20:24:33 437.470
STRAND 1 30 Jul 20:19:32 20:24:31 52° 101° (E) 20:29:27 437.568
YUBILEINY 30 Jul 20:20:39 20:28:10 30° 74° (ENE) 20:35:35 435.215
CANX-2 30 Jul 20:28:11 20:32:25 69° 77° (ENE) 20:36:40 2200.000
UWE-3 30 Jul 20:29:24 20:31:42 14° 67° (ENE) 20:34:01 435.000/436.395/437.385
DOVE 4 30 Jul 20:35:17 20:38:36 22° 266° (W) 20:42:04 437.250
CUTE 1.7 + AOD 2 30 Jul 20:40:47 20:45:03 85° 76° (ENE) 20:49:20 437.475
AIST 2 30 Jul 20:51:51 20:55:50 50° 300° (WNW) 20:59:51 435.215
Oscar 11 30 Jul 20:54:31 20:57:11 16° 69° (ENE) 20:59:51 145.826/435.025
CUBEBUG 2 30 Jul 20:57:30 21:01:50 43° 74° (ENE) 21:06:19 437.445
ISS 30 Jul 21:10:07 21:12:18 17° 326° (NW) 21:14:30 145.825
SEEDS 30 Jul 21:12:48 21:16:56 55° 260° (W) 21:21:05 437.485
COMPASS 1 30 Jul 21:17:03 21:21:13 74° 259° (WSW) 21:25:24 437.405
Cosmos 2504 30 Jul 21:30:52 21:37:07 25° 72° (ENE) 21:43:03 435.465 / 435.565
DELFI C3 30 Jul 21:32:20 21:34:51 16° 70° (ENE) 21:37:23 145.870
AUBIESAT-1 30 Jul 21:33:09 21:34:37 12° 61° (ENE) 21:36:07 437.475
HO-68 30 Jul 21:37:16 21:43:38 34° 262° (W) 21:50:03 435.675
O/OREOS (USA 219) 30 Jul 21:38:12 21:40:46 15° 299° (WNW) 21:43:19 437.305
Cosmos 2491 30 Jul 21:38:18 21:46:48 61° 91° (E) 21:55:18 435.465 / 435.565
PRISM 30 Jul 21:39:47 21:43:43 44° 100° (E) 21:47:40 437.425
AAUSAT CUBESAT 2 30 Jul 21:41:35 21:45:34 45° 261° (W) 21:49:33 437.432
PHONESAT 2.4 30 Jul 21:44:01 21:46:57 43° 212° (SSW) 21:49:53 2401.200-2431.200
FUNcube-1 30 Jul 21:51:22 21:55:52 72° 77° (ENE) 22:00:26 145.935
ZACube-1 30 Jul 21:54:32 21:59:03 85° 81° (E) 22:03:40 437.345
AO-85 30 Jul 21:55:09 21:57:55 17° 50° (NE) 22:00:34 145.980
CINEMA 3 30 Jul 21:57:37 21:58:42 11° 269° (W) 21:59:48 145.822/145.860
STRAND 1 30 Jul 22:00:23 22:03:12 15° 294° (WNW) 22:06:00 437.568
UWE-3 30 Jul 22:03:15 22:07:39 47° 261° (W) 22:12:10 435.000/436.395/437.385
YUBILEINY 30 Jul 22:16:46 22:25:07 49° 271° (W) 22:33:25 435.215
UNISAT 6 30 Jul 22:26:00 22:26:45 10° 91° (E) 22:27:30 437.425
Oscar 11 30 Jul 22:29:01 22:32:59 34° 262° (W) 22:36:58 145.826/435.025
HUMSAT D 30 Jul 22:34:18 22:38:25 46° 75° (ENE) 22:42:33 437.325/437.525
CUBEBUG 2 30 Jul 22:36:11 22:38:38 14° 268° (W) 22:41:08 437.445
M-CUBED/EXP-1 PRIME 30 Jul 22:42:13 22:45:57 71° 255° (WSW) 22:50:01 437.505
